[[{"header":{"parameterUnit":"m.s-1","parameterCategory":1,"la1":30.2991,"la2":30.254,"lo1":-89.0895,"lo2":-89.0444,"dy":0.0017,"dx":0.0017,"nx":28,"ny":28,"refTime":"2025-07-03T03:00:00:Z","depth":0,"parameterNumber":2,"parameterNumberName":"U-component_of_WINDS"},"data":[0,0,0,0,0,0,0,0,0,0,0,0,0,0,0,0,0,0,0,0,0,0,0,0,0,0,0,0,0,0,0,0,0,0,0,0,0,0,0,0,0,0,0,0,0,0,0,0,0,0,0,0,0,0,0,0,0,0,0.3115,0.3116,0,0.3172,0.3173,0.3174,0.326,0.3261,0.3263,0.3264,0.3321,0.3321,0.3321,0,0,0,0,0,0,0,0,0,0,0,0,0,0.3078,0.3079,0.3115,0.3116,0.3116,0.3172,0.3173,0.3174,0.3259,0.3261,0.3263,0.3265,0.3321,0.3321,0.3321,0,0,0,0,0,0,0,0,0,0,0,0,0,0.3111,0.3079,0.3115,0.3166,0.3171,0.3172,0.3173,0.3174,0.3259,0.3261,0.3264,0.3266,0.3321,0.3321,0.3321,0.3276,0,0,0.3321,0.3322,0,0,0,0,0,0,0,0,0.3109,0.3112,0.3158,0.3162,0.3168,0.3211,0.3181,0.3208,0.3258,0.3225,0.3264,0.3267,0.3282,0.3286,0.3292,0.3279,0.3281,0.3321,0.3322,0.3322,0.3322,0,0,0,0,0,0,0,0.3106,0.311,0.3138,0.3158,0.3164,0.3186,0.3193,0.3187,0.324,0.3229,0.3235,0.3241,0.3286,0.3291,0.3293,0.3282,0.3321,0.3322,0.3322,0.3322,0.3237,0.3234,0,0,0,0,0,0,0.3097,0.3108,0.3136,0.3139,0.3144,0.3184,0.3192,0.3195,0.3241,0.325,0.3239,0.3244,0.329,0.3293,0.3296,0.3246,0.3322,0.3322,0.3322,0.3239,0.3236,0.3234,0,0,0,0,0,0,0.3096,0.3099,0.3133,0.3125,0.3131,0.3183,0.3185,0.3195,0.3201,0.3248,0.3258,0.3234,0.3292,0.3296,0.3281,0.3249,0.3322,0.3322,0.3242,0.3238,0.3235,0.3146,0,0,0,0,0,0,0.3094,0.3098,0.3081,0.3124,0.3131,0.3117,0.3183,0.3194,0.3201,0.3209,0.3247,0.3255,0.3294,0.328,0.3281,0.3251,0.3322,0.3245,0.324,0.3236,0.3152,0.314,0.313,0,0,0,0,0,0.3093,0.3053,0.308,0.3083,0.3112,0.3115,0.3119,0.3165,0.3198,0.3182,0.3213,0.3254,0.3253,0.3278,0.328,0.3249,0.3247,0.3241,0.3236,0.3157,0.3142,0.313,0,0,0,0,0,0,0.3003,0.306,0.309,0.3063,0.3084,0.313,0.311,0.3148,0.3159,0.3166,0.3222,0.323,0.3207,0.3228,0.3254,0.3209,0.3257,0.3251,0.3196,0.3182,0.3171,0.3166,0.3322,0,0,0,0,0,0.2981,0.298,0.3029,0.3,0.301,0.3058,0.3061,0.3095,0.3118,0.3127,0.3157,0.3178,0.3183,0.3184,0.3191,0.3157,0.3166,0.3137,0.3125,0.3116,0.311,0.3093,0.3081,0.3216,0.3216,0.3216,0,0,0.2934,0.2965,0.296,0.2983,0.3003,0.3,0.3065,0.3058,0.3056,0.3126,0.3114,0.3137,0.3164,0.3139,0.313,0.3155,0.3075,0.3109,0.3101,0.3101,0.3087,0.3074,0.3062,0.3213,0.3213,0.3214,0,0,0.2846,0.2869,0.2848,0.2868,0.2898,0.2931,0.2926,0.2967,0.2985,0.2974,0.3026,0.3025,0.3032,0.3049,0.3058,0.2979,0.3017,0.298,0.292,0.2904,0.2893,0.2884,0.2854,0.2843,0.2975,0.2974,0.2974,0,0.2783,0.278,0.2833,0.2823,0.2832,0.2897,0.2876,0.2892,0.2922,0.2926,0.2955,0.2966,0.2988,0.2968,0.2949,0.2955,0.2951,0.2974,0.2891,0.2882,0.2874,0.2846,0.2835,0.297,0.297,0.2971,0.2971,0,0.2701,0.2699,0.2678,0.2707,0.2714,0.2698,0.2748,0.2749,0.2783,0.2813,0.2801,0.2831,0.2845,0.2844,0.2876,0.2829,0.2843,0.288,0.2929,0.2855,0.283,0.282,0.2962,0.2964,0.2966,0.2967,0,0,0.2555,0.2615,0.2606,0.262,0.2659,0.2658,0.2647,0.2662,0.2661,0.2681,0.2671,0.2677,0.2712,0.2723,0.2758,0.2744,0.2678,0.2783,0.2784,0.2761,0.2627,0.2597,0.2584,0.2706,0.2704,0.2702,0.2624,0,0.2473,0.2456,0.2504,0.2475,0.2473,0.2536,0.2526,0.2549,0.2577,0.258,0.2612,0.2614,0.2661,0.2668,0.2657,0.2688,0.2652,0.2695,0.2696,0.2696,0.2685,0.2571,0.2539,0.2463,0.2615,0.2613,0.2612,0,0.2374,0.239,0.236,0.2402,0.2403,0.2393,0.2411,0.2414,0.2441,0.2463,0.2476,0.2518,0.251,0.2559,0.2548,0.2576,0.258,0.2596,0.2595,0.2594,0.2647,0.2565,0.244,0.2428,0.2597,0.2599,0.26,0,0.2268,0.2282,0.2267,0.2277,0.2326,0.2317,0.2337,0.2368,0.2374,0.239,0.2394,0.2409,0.2416,0.2427,0.2472,0.2504,0.2455,0.2508,0.2472,0.247,0.2456,0.2456,0.2327,0.2462,0.2463,0.2463,0.2463,0,0.217,0.2149,0.222,0.2209,0.2188,0.2244,0.2222,0.2248,0.2275,0.2271,0.2328,0.2323,0.2384,0.2386,0.2422,0.2407,0.241,0.2427,0.2436,0.242,0.2418,0.2421,0.2427,0.246,0.2461,0.2461,0.2462,0,0.2046,0.2093,0.208,0.2129,0.214,0.2122,0.2164,0.2156,0.219,0.2184,0.2186,0.2238,0.2244,0.2291,0.2307,0.2331,0.2301,0.2322,0.2291,0.2297,0.2258,0.226,0.2125,0.211,0.2256,0.2255,0.2254,0,0.1979,0.1965,0.2012,0.2014,0.2032,0.2034,0.2041,0.2097,0.2102,0.2134,0.2122,0.2133,0.2144,0.215,0.2188,0.2201,0.2221,0.2173,0.2223,0.2208,0.2218,0.2217,0.2216,0.2161,0.2159,0.2158,0.2157,0,0.1854,0.1879,0.1887,0.1904,0.1911,0.1927,0.1946,0.1944,0.2006,0.2008,0.2015,0.2024,0.2041,0.205,0.207,0.2091,0.2133,0.2141,0.2133,0.2115,0.2098,0.2105,0.226,0.2143,0.2145,0.2146,0.2146,0.2147,0.1756,0.1746,0.1778,0.1786,0.1807,0.1824,0.1819,0.1853,0.186,0.1878,0.1911,0.1913,0.1943,0.1974,0.1992,0.1994,0.2019,0.2008,0.2004,0.2,0.1991,0.21,0.1998,0.1999,0.1999,0.1999,0.2,0,0.1632,0.1657,0.1663,0.1689,0.1695,0.1737,0.1761,0.1763,0.1764,0.1789,0.1799,0.1807,0.1817,0.1858,0.1873,0.1866,0.1886,0.1868,0.1868,0.1872,0.1969,0.1973,0.1852,0.1852,0.1852,0.1852,0.1852,0.1852,0.1568,0.1554,0.1582,0.1579,0.1604,0.1607,0.1617,0.1633,0.1653,0.1659,0.1668,0.1696,0.1727,0.1744,0.1755,0.1767,0.1769,0.1744,0.1762,0.1851,0.1865,0.1878,0.1883,0.1744,0.1744,0.1664,0.1664,0.1663]},{"header":{"parameterUnit":"m.s-1","parameterCategory":1,"la1":30.2991,"la2":30.254,"lo1":-89.0895,"lo2":-89.0444,"dy":0.0017,"dx":0.0017,"nx":28,"ny":28,"refTime":"2025-07-03T03:00:00:Z","depth":0,"parameterNumber":3,"parameterNumberName":"V-component_of_WINDS"},"data":[0,0,0,0,0,0,0,0,0,0,0,0,0,0,0,0,0,0,0,0,0,0,0,0,0,0,0,0,0,0,0,0,0,0,0,0,0,0,0,0,0,0,0,0,0,0,0,0,0,0,0,0,0,0,0,0,0,0,-2.7471,-2.7472,0,-2.7571,-2.7572,-2.7573,-2.7547,-2.7545,-2.7543,-2.7541,-2.7642,-2.7647,-2.7651,0,0,0,0,0,0,0,0,0,0,0,0,0,-2.7257,-2.7261,-2.7471,-2.7472,-2.7473,-2.7571,-2.7572,-2.7573,-2.7547,-2.7545,-2.7543,-2.754,-2.7641,-2.7646,-2.7651,0,0,0,0,0,0,0,0,0,0,0,0,0,-2.7352,-2.7262,-2.7471,-2.7472,-2.7473,-2.757,-2.7572,-2.7574,-2.7548,-2.7545,-2.7542,-2.7539,-2.7639,-2.7646,-2.7652,-2.7753,0,0,-2.7673,-2.7676,0,0,0,0,0,0,0,0,-2.7347,-2.736,-2.7471,-2.7472,-2.7474,-2.7543,-2.7533,-2.7634,-2.7549,-2.752,-2.7541,-2.7538,-2.7612,-2.762,-2.7646,-2.7758,-2.7762,-2.7674,-2.7678,-2.7681,-2.7683,0,0,0,0,0,0,0,-2.734,-2.7356,-2.751,-2.7472,-2.7474,-2.7468,-2.7478,-2.7552,-2.7581,-2.7522,-2.752,-2.7532,-2.7612,-2.7639,-2.7648,-2.7764,-2.7673,-2.7679,-2.7684,-2.7686,-2.7965,-2.7968,0,0,0,0,0,0,-2.7333,-2.7351,-2.7507,-2.7513,-2.7402,-2.7474,-2.7485,-2.7524,-2.758,-2.7586,-2.7535,-2.7531,-2.7629,-2.764,-2.7651,-2.7774,-2.7681,-2.7687,-2.7691,-2.7961,-2.7965,-2.7969,0,0,0,0,0,0,-2.7328,-2.7347,-2.7503,-2.7432,-2.7451,-2.7481,-2.7524,-2.7528,-2.7555,-2.759,-2.7595,-2.7558,-2.7627,-2.7642,-2.7728,-2.7777,-2.769,-2.7696,-2.7957,-2.7962,-2.7967,-2.8019,0,0,0,0,0,0,-2.7322,-2.7346,-2.7385,-2.7433,-2.7455,-2.7579,-2.7527,-2.7532,-2.7567,-2.7562,-2.7613,-2.7618,-2.7626,-2.7718,-2.7735,-2.7785,-2.7701,-2.7953,-2.796,-2.7965,-2.8013,-2.8025,-2.8035,0,0,0,0,0,-2.7315,-2.7395,-2.7387,-2.7406,-2.7504,-2.7582,-2.7594,-2.7602,-2.7571,-2.761,-2.7633,-2.7616,-2.7769,-2.7727,-2.7746,-2.7798,-2.795,-2.7958,-2.7965,-2.8008,-2.8023,-2.8035,0,0,0,0,0,0,-2.7351,-2.7401,-2.7393,-2.7491,-2.7532,-2.7577,-2.7627,-2.7618,-2.7669,-2.7662,-2.767,-2.7681,-2.777,-2.7793,-2.7746,-2.7899,-2.7855,-2.7866,-2.7881,-2.7895,-2.7906,-2.7899,-2.7707,0,0,0,0,0,-2.7371,-2.743,-2.747,-2.7553,-2.7574,-2.7597,-2.7631,-2.7634,-2.7677,-2.7694,-2.7723,-2.7765,-2.7823,-2.786,-2.7915,-2.8016,-2.8027,-2.8061,-2.8072,-2.8081,-2.8091,-2.8147,-2.8163,-2.7993,-2.7993,-2.7993,0,0,-2.7412,-2.7446,-2.7483,-2.7561,-2.7594,-2.7655,-2.7612,-2.7678,-2.7723,-2.7704,-2.7788,-2.7811,-2.7858,-2.7953,-2.7996,-2.7974,-2.814,-2.8091,-2.8098,-2.8103,-2.8156,-2.8172,-2.8186,-2.7998,-2.7997,-2.7997,0,0,-2.7517,-2.7549,-2.7622,-2.7656,-2.7705,-2.772,-2.7738,-2.7784,-2.7799,-2.7883,-2.787,-2.7924,-2.8022,-2.8057,-2.8087,-2.8206,-2.8193,-2.8224,-2.8282,-2.8336,-2.8349,-2.8361,-2.8404,-2.8419,-2.8233,-2.8234,-2.8234,0,-2.7562,-2.7653,-2.766,-2.7728,-2.7763,-2.7749,-2.7822,-2.7854,-2.7919,-2.7943,-2.7919,-2.8042,-2.8073,-2.8176,-2.8205,-2.823,-2.825,-2.8218,-2.8347,-2.8359,-2.837,-2.8411,-2.8427,-2.8237,-2.8237,-2.8236,-2.8236,0,-2.7705,-2.7769,-2.7822,-2.7885,-2.7926,-2.7996,-2.8014,-2.8054,-2.8053,-2.807,-2.8156,-2.8193,-2.8255,-2.8279,-2.8279,-2.8382,-2.8367,-2.8345,-2.83,-2.8389,-2.8428,-2.8443,-2.8242,-2.8241,-2.824,-2.8239,0,0,-2.7837,-2.7904,-2.7923,-2.7952,-2.8006,-2.8055,-2.8125,-2.8186,-2.822,-2.8265,-2.8324,-2.8408,-2.8387,-2.8422,-2.8425,-2.8473,-2.8565,-2.8444,-2.8445,-2.8465,-2.8681,-2.8697,-2.8715,-2.8556,-2.8559,-2.8562,-2.8677,0,-2.7947,-2.807,-2.8079,-2.8189,-2.8248,-2.8236,-2.8296,-2.8336,-2.8354,-2.8406,-2.8426,-2.8485,-2.8454,-2.8475,-2.8521,-2.8544,-2.8608,-2.8535,-2.8611,-2.8613,-2.8599,-2.8735,-2.8753,-2.886,-2.8692,-2.8694,-2.8696,0,-2.8092,-2.8143,-2.826,-2.8306,-2.8331,-2.8385,-2.8442,-2.8492,-2.8537,-2.8546,-2.8585,-2.8582,-2.8653,-2.8606,-2.8704,-2.8655,-2.8686,-2.8701,-2.8706,-2.8713,-2.866,-2.8746,-2.8894,-2.891,-2.872,-2.8718,-2.8716,0,-2.8177,-2.8273,-2.8356,-2.8381,-2.8437,-2.8475,-2.85,-2.8542,-2.8578,-2.8628,-2.8651,-2.8708,-2.8739,-2.8784,-2.8796,-2.876,-2.8893,-2.8847,-2.8903,-2.8903,-2.8932,-2.893,-2.9087,-2.8952,-2.8952,-2.8952,-2.8951,0,-2.8299,-2.8371,-2.8395,-2.8445,-2.8526,-2.8535,-2.8614,-2.8636,-2.8674,-2.8728,-2.8721,-2.8772,-2.8785,-2.8839,-2.8849,-2.8928,-2.8943,-2.8952,-2.8954,-2.8953,-2.8952,-2.8974,-2.8967,-2.8956,-2.8955,-2.8954,-2.8953,0,-2.8407,-2.8425,-2.8515,-2.856,-2.8573,-2.863,-2.8669,-2.8718,-2.8735,-2.8804,-2.8821,-2.8848,-2.8911,-2.8928,-2.9003,-2.9009,-2.9103,-2.9098,-2.9089,-2.9088,-2.9144,-2.9138,-2.932,-2.9344,-2.9193,-2.9195,-2.9196,0,-2.8484,-2.8539,-2.8591,-2.8627,-2.8654,-2.8712,-2.8749,-2.876,-2.8799,-2.8854,-2.8897,-2.8959,-2.9009,-2.911,-2.9136,-2.9194,-2.919,-2.925,-2.9198,-2.9196,-2.9191,-2.9188,-2.9193,-2.9259,-2.9261,-2.9262,-2.9263,0,-2.8618,-2.8625,-2.8679,-2.8737,-2.8781,-2.8827,-2.8871,-2.8901,-2.8918,-2.8962,-2.9027,-2.9066,-2.9143,-2.9205,-2.9263,-2.9288,-2.9279,-2.9279,-2.9295,-2.9295,-2.9287,-2.9292,-2.9115,-2.9275,-2.9274,-2.9273,-2.9272,-2.9272,-2.8713,-2.8762,-2.8806,-2.8866,-2.89,-2.8942,-2.899,-2.9013,-2.9067,-2.9131,-2.9134,-2.9205,-2.9248,-2.9325,-2.9354,-2.9408,-2.939,-2.9414,-2.9419,-2.9425,-2.943,-2.9278,-2.9419,-2.9419,-2.9418,-2.9418,-2.9418,0,-2.8847,-2.8875,-2.8931,-2.8993,-2.904,-2.9028,-2.9076,-2.9116,-2.9178,-2.922,-2.9269,-2.9344,-2.9404,-2.9435,-2.9494,-2.9532,-2.9529,-2.9547,-2.9545,-2.9551,-2.9443,-2.9423,-2.9549,-2.9549,-2.9549,-2.9549,-2.9549,-2.9549,-2.8923,-2.9005,-2.9017,-2.9115,-2.9142,-2.9211,-2.924,-2.9278,-2.9311,-2.9394,-2.9444,-2.9464,-2.9501,-2.9563,-2.9618,-2.9625,-2.9648,-2.9668,-2.9673,-2.9572,-2.9558,-2.9546,-2.9527,-2.9673,-2.9673,-2.9777,-2.9778,-2.9779]}]]